DELTA 1 DEB, 10647

Orbit data source: Space-Track

DELTA 1 DEB, 10647 is space debris in SSO originally from a launch on Thu, 29 Jul 1976 UTC launched from the Air Force Western Test Range (AFWTR). Debris objects in space refer to the collection of defunct objects orbiting the Earth. Examples of debris include non-operational satellites, rocket bodies, and fragments generated from explosions, collisions, or faulty payload assembly.

Loading next visibility...
Identifier
10647, 1976-077H
Orbit
SSO
Country
Flag of USUS
Related business
Manufacturer
Unknown
Mission
Spacecraft
Bus & Motor
Unknown
Mass
Unknown
Launch date (UTC)
1976-07-29 (50 years ago)
Launch vehicle
Unknown
Launch site
Air Force Western Test Range (AFWTR)
Object type
Payload
Rocket body
Debris
Shape & HBR
Unknown shape, 0.1 m
Radar Cross Section
Medium (>0.1 m² and <1 m²)

Expand to show TLE details & history
Last TLE update: 9 hours ago

TLE from 9 hours ago
0 DELTA 1 DEB
1 10647U 76077H   26171.21997727 -.00000070  00000-0 -26231-3 0  9992
2 10647 102.7592 269.0300 0166597 121.9435 268.4561 12.11313696206592
Epoch: 2026-06-20T05:16Z
TLE epoch observation values (Epoch: 2026-06-20T05:16:46.036Z)
Latitude
27.76767°
Longitude
-85.41398°
Altitude
1,639.451 km
Speed
7.052 km/s
True Right ascension
17h 28m 51s
True Declination
27° 38' 30"
Sunlit
Object was in full shadow at epoch
Visualization orbit readout
Latitude
Unknown
Longitude
Unknown
Altitude
Unknown
Speed
Unknown
Apparent Right ascension
Unknown
Apparent Declination
Unknown
Sunlit
N/A
Visualization observer readout
Local Sidereal Time
01:24:32
Azimuth
Unknown
Elevation
Unknown
Doppler factor
Unknown
Orbital elements
Apogee altitude
1,761.642 km
Perigee altitude
1,494.874 km
Semi-major axis
8,006.395 km
Eccentricity
0.01666
Inclination
102.7592°
RAAN
269.03°
Arg. of periapsis
121.9435°
True anomaly
266.54915°
Mean anomaly
268.4561°
Eccentric anomaly
267.50248°
Mean motion
3.02962 °/min
Orbital period
118.83 mins
BSTAR
-0.00026231
Loading maneuver chart data...
Computing Atmospheric mass density...
Loading historical data...
Loading historical data...
Loading historical data...
Loading historical data...
Loading historical data...
Loading historical data...
Loading historical data...

Documentation

Showing up to 5 results
|